www.pogodaiklimat.ru

Погода и климат >> Архив погоды >> Россия >> Якутия >> Мыс Быков


ПОГОДА на Мысе Быков

  • Прогноз погоды на Мысе Быков
  • Монитор погоды на Мысе Быков

АРХИВ ПОГОДЫ на Мысе Быков

Время (UTC), дата Ветер
(напр.,м/с)
 
Видим.   Явления Облачность Т
(С)
Тd
(С)
f
(%)
Тe
(С)
Тes
(С)
Комфортность P
(гПа)
Po
(гПа)
Тmin
(С)
Tmax
(С)
R
(мм)
R24
(мм)
S
(см)
15 19.03 Ю 3 20 км ясно -33.1 -36.7 70 -43 -43 опасность
обморожения
1021.9 1019.9
18 19.03 Ю 2 20 км ясно -32.4 -36.2 69 -40 -40 опасность
обморожения
1022.2 1020.2
21 19.03 ЮВ 3 20 км ясно -31.6 -35.2 70 -42 -42 опасность
обморожения
1021.7 1019.7
00 20.03 ЮЗ 2 20 км ясно -26.8 -30.0 74 -34 -33 опасность
обморожения
1018.2 1016.2 -33.1 23
03 20.03 ЮЗ 5 20 км ясно -23.0 -26.3 74 -34 -33 опасность
обморожения
1017.7 1015.7
06 20.03 ЮЗ 5 20 км ясно -21.3 -25.3 70 -32 -31 опасность
обморожения
1017.2 1015.2
09 20.03 ЮЗ 4 20 км 3/0
[Ci fib]
-20.5 -24.6 70 -30 -30 1017.2 1015.2
12 20.03 ЮЗ 2 20 км 3/0
[Ac trans Ci fib]
-21.7 -25.7 70 -28 -28 1017.8 1015.8 -19.9
15 20.03 ЮЗ 7-10
{11}
20 км позёмок 4/0
[Ac trans Ci fib]
-20.2 -23.5 75 -32 -32 опасность
обморожения
1017.3 1015.3
18 20.03 ЮЗ 8-12
{14}
2000 м слаб. снег {метель} 10/0
[As op]
-18.6 -21.2 80 -31 -31 опасность
обморожения
1016.9 1014.9
21 20.03 ЮЗ 7-10
{13}
2000 м слаб. снег {метель} 10/0
[As op]
-18.4 -21.0 80 -30 -30 1016.9 1014.9
00 21.03 ЮЗ 8
{10}
4000 м метель {снег} 6/0
[Ci fib]
-18.3 -21.6 75 -30 -30 1015.6 1013.6 -21.8 0.3 24
03 21.03 ЮЗ 9-12
{13}
4000 м метель 8/0
[Ci fib]
-18.6 -21.9 75 -31 -31 опасность
обморожения
1014.5 1012.5
06 21.03 ЮЗ 11-14
{14}
4000 м метель 4/0
[Ci fib]
-16.3 -19.7 75 -29 -29 1013.7 1011.7
09 21.03 ЮЗ 10-13
{14}
4000 м метель 10/0
[Ac trans Ci fib]
-15.2 -18.6 75 -27 -27 1013.1 1011.1
12 21.03 З 11-13
{14}
2000 м слаб. снег {метель} 10/0
[As op]
-12.7 -15.4 80 -24 -24 1011.8 1009.8 -12.7 0.0
15 21.03 З 9-11
{14}
4000 м метель {снег} 10/0
[Ac und]
-15.0 -18.4 75 -26 -26 1012.3 1010.3
18 21.03 ЮЗ 5
{12}
20 км {снег, метель} 10/0
[Ac trans Ci fib]
-15.6 -19.0 75 -25 -25 1012.1 1010.1
21 21.03 Ю 4 20 км 10/0
[Ac trans Ci fib]
-16.8 -20.2 75 -25 -25 1012.3 1010.3
00 22.03 Ю 6-10
{12}
20 км позёмок 10/0
[Ac und]
-14.1 -17.6 75 -23 -23 1009.5 1007.5 -16.8 0.0 24
03 22.03 Ю 10-13
{14}
20 км позёмок 10/0
[Ac und]
-13.7 -17.2 75 -25 -25 1007.8 1005.8
06 22.03 Ю 9-13
{14}
20 км позёмок 10/0
[Ac und]
-12.6 -17.8 65 -23 -23 1004.3 1002.3
09 22.03 ЮВ 8-11
{13}
20 км 10/0
[Ac und]
-15.4 -18.8 75 -26 -26 1001.4 999.4
12 22.03 ЮВ 6
{12}
20 км позёмок 10/0
[Ac und]
-15.2 -18.6 75 -25 -25 999.8 997.8 -12.6
15 22.03 Ю 4 20 км {метель} 10/0
[Ac und]
-12.9 -16.4 75 -20 -20 1000.2 998.2
18 22.03 Ю 3 20 км {метель} 10/0
[Ac und]
-12.8 -16.3 75 -19 -19 1001.5 999.5
21 22.03 Ю 5 20 км 10/0
[Ac und]
-13.2 -17.5 70 -22 -22 1001.5 999.5
00 23.03 ЮВ 3 20 км 10/0
[]
-19.0 -22.3 75 -26 -26 1001.8 999.8 -19.0 24
03 23.03 ЮВ 3 20 км ясно -18.2 -21.5 75 -25 -23 1002.7 1000.7
06 23.03 ЮВ 3 20 км ясно -17.7 -21.9 70 -25 -23 1003.9 1001.9
09 23.03 СЗ 6 20 км ясно -21.6 -24.8 75 -33 -33 опасность
обморожения
1006.1 1004.1
12 23.03 СЗ 6 20 км ясно -25.1 -28.3 75 -37 -37 опасность
обморожения
1008.1 1006.1 -17.7
15 23.03 СЗ 5 20 км 10/0
[Ci fib]
-24.6 -27.9 74 -36 -36 опасность
обморожения
1009.7 1007.7
18 23.03 СЗ 5 20 км 10/0
[Ac trans Ci fib]
-22.1 -25.4 74 -33 -33 опасность
обморожения
1010.5 1008.5
21 23.03 СЗ 5 20 км {снег} 10/0
[Ac und]
-20.2 -23.5 75 -30 -30 1011.1 1009.1
00 24.03 СЗ 7
{10}
20 км {снег} 6/0
[Ci fib]
-24.6 -27.9 74 -38 -37 опасность
обморожения
1011.9 1009.9 -25.1 0.0 24
03 24.03 СЗ 7
{10}
20 км 10/0
[Ac und]
-24.0 -27.2 75 -37 -37 опасность
обморожения
1012.9 1010.9
06 24.03 СЗ 7
{10}
20 км позёмок 10/0
[Ac und]
-23.9 -27.1 75 -37 -37 опасность
обморожения
1013.8 1011.8
09 24.03 СЗ 5 20 км {метель} 10/0
[Ac und]
-24.4 -27.6 75 -36 -36 опасность
обморожения
1015.6 1013.6
12 24.03 СЗ 6 20 км {метель} 10/0
[Ac und]
-25.4 -28.5 75 -38 -38 опасность
обморожения
1016.6 1014.6 -23.9
15 24.03 СЗ 6 4000 м слаб. снег {метель} 10/0
[As op]
-26.0 -29.1 75 -39 -39 опасность
обморожения
1017.3 1015.3
18 24.03 СЗ 4 20 км {снег, метель} 10/0
[As op]
-27.2 -31.1 69 -38 -38 опасность
обморожения
1017.5 1015.5
21 24.03 СЗ 3 20 км 10/0
[As op]
-27.9 -31.7 70 -37 -37 опасность
обморожения
1018.2 1016.2
00 25.03 СЗ 2 20 км 8/0
[Ac trans Ci fib]
-27.7 -30.8 75 -35 -34 опасность
обморожения
1018.7 1016.7 -28.0 0.0 24
03 25.03 СЗ 2 20 км 8/0
[Cc]
-26.6 -29.7 75 -34 -31 опасность
обморожения
1019.2 1017.2
06 25.03 З 2 20 км 4/0
[Ci fib]
-24.8 -28.0 75 -31 -30 опасность
обморожения
1020.0 1018.0
09 25.03 В 1 20 км ясно -25.5 -28.7 74 -29 -29 1019.8 1017.8
12 25.03 В 2 20 км ясно -26.7 -29.9 74 -34 -34 опасность
обморожения
1019.8 1017.8 -24.5
15 25.03 ЮВ 2 20 км ясно -26.2 -29.4 74 -33 -33 опасность
обморожения
1019.8 1017.8
18 25.03 ЮВ 3 20 км ясно -26.6 -29.7 75 -36 -36 опасность
обморожения
1019.8 1017.8
21 25.03 Ю 3 20 км ясно -25.8 -29.0 74 -35 -35 опасность
обморожения
1020.3 1018.3
00 26.03 ЮВ 2 20 км ясно -26.0 -29.1 75 -33 -31 опасность
обморожения
1020.2 1018.2 -26.7 24
03 26.03 ЮВ 3 20 км ясно -23.9 -27.1 75 -32 -30 опасность
обморожения
1020.0 1018.0
06 26.03 ЮВ 3 20 км ясно -22.2 -25.5 74 -30 -29 1019.9 1017.9
09 26.03 ЮВ 4 20 км ясно -22.9 -26.2 74 -32 -32 опасность
обморожения
1020.2 1018.2

 

Местоположение метеостанции Мыс Быков (Якутия, Россия): широта 72.00 долгота 129.10 высота над уровнем моря 16 м.

В архиве по умолчанию представлена погода на Мысе Быков за последнюю неделю. Архивные данные за месяц целиком и за предыдущие месяцы, начиная с января 2011 года, Вы можете получить, выбрав интересующий диапазон дат из раскрывающегося списка и нажав кнопку "Ввод!".


*Определитесь, кто Вы:
робот инопланетянин человек

Внимание! Время в таблицах - всемирное. Для получения местного времени необходимо прибавить поправку, которая равна 9 ч.

Смотрите также архив погоды в соседних городах и на ближайших метеорологических станциях:

Погода в Тикси (Якутия, Россия) (47 км)
Погода на Столб Острове (Якутия, Россия) (105 км)
Погода в Кюсюре (Якутия, Россия) (159 км)
Погода в Тюмяти (Якутия, Россия) (193 км)
Погода в Юбилейной (Якутия, Россия) (287 км)
Погода в Усть-Куйге (Якутия, Россия) (324 км)
Погода на Усть-Оленеке (Якутия, Россия) (330 км)
Погода на Мысе Кигилях (Якутия, Россия) (384 км)
Погода в Джарджане (Якутия, Россия) (410 км)
Погода на Проливе Санникова (Якутия, Россия) (430 км)

Пояснения к столбцам:

Ветер - указаны скорость ветра в м/с - средняя за 10 мин, порывы в срок и между сроками (в фигурных скобках) и направление, откуда дует ветер: С - северный, СВ - северо-восточный, В - восточный, ЮВ - юго-восточный, Ю - южный, ЮЗ - юго-западный, З - западный, СЗ - северо-западный.
Видимость - горизонтальная дальность видимости в метрах или километрах. При видимости от 1 до 10 км при отсутствии осадков обычно наблюдается дымка, при ухудшении видимости до 1 км и менее - туман. В сухую погоду видимость может ухудшаться дымом, пылью или мглою.
Явления - указаны атмосферные явления, наблюдавшиеся в срок или в последний час перед сроком; фигурными скобками обозначены явления, наблюдавшиеся между сроками (за 1-3 часа до срока); квадратными скобками обозначены град или гололедные отложения с указанием их диаметра в мм.
Облачность - указаны через наклонную черту общая и нижняя облачность в баллах и высота нижней границы облаков в метрах; квадратными скобками обозначены формы облаков: Ci - перистые, Cs - перисто-слоистые, Cc - перисто-кучевые, Ac - высококучевые, As - высокослоистые, Sc - слоисто-кучевые, Ns - слоисто-дождевые, Cu - кучевые, Cb - кучево-дождевые. Подробнее классификацию облаков см. в Атласе облаков (PDF).
T - Температура воздуха - температура, измеренная на высоте 2 м над землей.
Td - Температура точки росы - температура, при понижении до которой содержащийся в воздухе водяной пар достигнет насыщения.
f - Относительная влажность воздуха - влажноcть воздуха, измеренная на высоте 2 м над землей.
Te - Эффективная температура - температура, которую ощущает одетый по сезону человек в тени. Характеристика душности погоды. При расчете учитывается влияние влажности воздуха и скорости ветра на теплоощущения человека.
Tes - Эффективная температура на солнце - температура, которую ощущает человек, с поправкой на солнечный нагрев. Характеристика знойности погоды. Зависит от высоты солнца над горизонтом, облачности и скорости ветра. Ночью, в пасмурную погоду, а также при ветре 12 м/с и более поправка равна нулю.
P - Атмосферное давление - приведенное к уровню моря атмосферное давление.
Po - Атмосферное давление - измеренное на уровне метеостанции атмосферное давление.
Tmin - Минимальная температура - минимум температуры воздуха на высоте 2 м над землей.
Tmax - Максимальная температура - максимум температуры воздуха на высоте 2 м над землей.
R - Количество осадков - Количество выпавших осадков за период времени, мм. При наведении курсора мыши на число - период времени, за который выпало указанное количество осадков.
R24 - Количество осадков - Количество выпавших осадков за 24 часа, мм.
S - Снежный покров - Высота снежного покрова, см. При наведении курсора мыши на число - состояние снежного покрова и степень покрытия местности в баллах.